Weather History for Fort Knox, KY

Change the Weather History Date:

Sunday, December 22, 2013

  Actual Average Record
Temperature  
Mean Temperature 48 °F -  
Max Temperature 60 °F 39 °F 60 °F (2007)
Min Temperature 35 °F 23 °F 1 °F (2000)
Degree Days  
Heating Degree Days 18    
Moisture  
Dew Point 50 °F    
Average Humidity 92    
Maximum Humidity 100    
Minimum Humidity 76    
Precipitation  
Precipitation 0.30 in - - ()
Sea Level Pressure  
Sea Level Pressure 29.81 in    
Wind  
Wind Speed 14 mph (SW)    
Max Wind Speed 20 mph    
Max Gust Speed 29 mph    
Visibility 9 miles    
Events Rain    
Averages and records for this station are not official NWS values.
T = Trace of Precipitation, MM = Missing Value Source: NWS Daily Summary

Daily Weather History Graph

Daily Weather History Graph

Search for Another Location

Airport:

Trip Planner

Search our weather history database for the weather conditions in past years. The results will help you decide how hot, cold, wet, or windy it might be!

Date:

Astronomy

Dec. 22, 2013 Rise Set
Actual Time 7:56 AM EST 5:28 PM EST
Civil Twilight 7:27 AM EST 5:58 PM EST
Nautical Twilight 6:54 AM EST 6:31 PM EST
Astronomical Twilight 6:22 AM EST 7:03 PM EST
Moon 10:36 PM EST (12/22) 10:57 AM EST (12/22)
Length of Visible Light 10h 31m
Length of Day
9h 32m
Waning Gibbous, 77% of the Moon is Illuminated
Dec 22
Waning Gibbous
Dec 25
Last Quarter
Jan 1
New
Jan 7
First Quarter
Jan 15
Full

Hourly Weather History & Observations

Time (EST) Temp. Windchill Dew Point Humidity Pressure Visibility Wind Dir Wind Speed Gust Speed Precip Events Conditions
12:10 AM 59.0 °F - 59.0 °F 100% 29.62 in 10.0 mi South 12.7 mph - N/A Rain Light Rain
12:35 AM 59.0 °F - 59.0 °F 100% 29.62 in 10.0 mi South 17.3 mph - N/A Rain Light Rain
12:58 AM 59.9 °F - 59.4 °F 98% 29.61 in 10.0 mi South 16.1 mph 27.6 mph 0.09 in Rain Light Rain
1:38 AM 59.0 °F - 59.0 °F 100% 29.60 in 10.0 mi SSE 17.3 mph 25.3 mph N/A Rain Light Rain
1:43 AM 60.8 °F - 59.0 °F 94% 29.61 in 10.0 mi South 15.0 mph 25.3 mph N/A Rain Light Rain
1:56 AM 60.8 °F - 59.0 °F 94% 29.61 in 10.0 mi SSE 17.3 mph 26.5 mph N/A   Mostly Cloudy
1:58 AM 60.8 °F - 59.0 °F 94% 29.61 in 10.0 mi South 17.3 mph 26.5 mph 0.03 in   Mostly Cloudy
2:03 AM 60.8 °F - 59.0 °F 94% 29.60 in 10.0 mi SSE 17.3 mph 26.5 mph N/A   Mostly Cloudy
2:04 AM 60.8 °F - 59.0 °F 94% 29.60 in 10.0 mi SSE 17.3 mph 26.5 mph N/A Rain Light Rain
2:09 AM 60.8 °F - 59.0 °F 94% 29.61 in 10.0 mi SSE 17.3 mph 21.9 mph N/A Rain Light Rain
2:58 AM 60.4 °F - 59.5 °F 97% 29.59 in 10.0 mi SSE 17.3 mph - 0.05 in Rain Light Rain
3:03 AM 60.8 °F - 59.0 °F 94% 29.59 in 10.0 mi SSE 19.6 mph 27.6 mph N/A Rain Light Rain
3:08 AM 60.8 °F - 59.0 °F 94% 29.66 in 10.0 mi South 17.3 mph 27.6 mph N/A Rain Light Rain
3:14 AM 60.8 °F - 59.0 °F 94% 29.67 in 10.0 mi South 18.4 mph 24.2 mph N/A   Overcast
3:19 AM 60.8 °F - 59.0 °F 94% 29.67 in 10.0 mi South 17.3 mph 24.2 mph N/A   Overcast
3:20 AM 60.8 °F - 59.0 °F 94% 29.66 in 10.0 mi South 18.4 mph 24.2 mph N/A Rain Light Rain
3:30 AM 60.8 °F - 59.0 °F 94% 29.61 in 10.0 mi SSE 16.1 mph 27.6 mph N/A Rain Light Rain
3:44 AM 60.8 °F - 59.0 °F 94% 29.66 in 10.0 mi South 16.1 mph 24.2 mph N/A Rain Light Rain
3:45 AM 60.8 °F - 59.0 °F 94% 29.66 in 10.0 mi South 16.1 mph 24.2 mph N/A   Mostly Cloudy
3:50 AM 60.8 °F - 59.0 °F 94% 29.64 in 10.0 mi South 17.3 mph 24.2 mph N/A   Mostly Cloudy
3:55 AM 60.8 °F - 59.0 °F 94% 29.65 in 10.0 mi South 13.8 mph 23.0 mph N/A Rain Light Rain
3:58 AM 60.8 °F - 59.0 °F 94% 29.61 in 10.0 mi SSE 12.7 mph 23.0 mph 0.03 in Rain Light Rain
4:08 AM 60.8 °F - 59.0 °F 94% 29.62 in 10.0 mi South 12.7 mph 20.7 mph N/A Rain Light Rain
4:13 AM 60.8 °F - 59.0 °F 94% 29.62 in 10.0 mi South 10.4 mph 20.7 mph N/A Rain Light Rain
4:14 AM 60.8 °F - 59.0 °F 94% 29.63 in 10.0 mi South 12.7 mph - N/A   Overcast
4:23 AM 60.8 °F - 59.0 °F 94% 29.66 in 10.0 mi SSW 16.1 mph 25.3 mph N/A Rain Light Rain
4:33 AM 59.0 °F - 59.0 °F 100% 29.64 in 9.0 mi South 11.5 mph 21.9 mph N/A Rain Light Rain
4:38 AM 59.0 °F - 59.0 °F 100% 29.65 in 10.0 mi SSW 15.0 mph 21.9 mph N/A Rain Light Rain
4:43 AM 59.0 °F - 59.0 °F 100% 29.65 in 10.0 mi SSW 17.3 mph 24.2 mph N/A Rain Light Rain
4:48 AM 59.0 °F - 59.0 °F 100% 29.65 in 9.0 mi SSW 17.3 mph 24.2 mph N/A Rain Light Rain
4:52 AM 59.0 °F - 59.0 °F 100% 29.65 in 7.0 mi WSW 18.4 mph 24.2 mph N/A Rain Light Rain
4:57 AM 59.0 °F - 57.2 °F 94% 29.67 in 2.0 mi WSW 19.6 mph 27.6 mph N/A Rain Heavy Rain
4:58 AM 59.0 °F - 57.2 °F 94% 29.67 in 2.0 mi WSW 19.6 mph 27.6 mph 0.06 in Rain Heavy Rain
5:03 AM 59.0 °F - 57.2 °F 94% 29.68 in 2.0 mi SW 16.1 mph 27.6 mph N/A Rain Light Rain
5:04 AM 59.0 °F - 57.2 °F 94% 29.68 in 2.5 mi SW 16.1 mph 27.6 mph N/A Rain Light Rain
5:09 AM 57.2 °F - 57.2 °F 100% 29.67 in 6.0 mi SSW 18.4 mph 28.8 mph N/A Rain Light Rain
5:14 AM 57.2 °F - 57.2 °F 100% 29.66 in 7.0 mi SW 16.1 mph 28.8 mph N/A Rain Light Rain
5:17 AM 57.2 °F - 57.2 °F 100% 29.66 in 10.0 mi SW 12.7 mph 28.8 mph N/A   Mostly Cloudy
5:22 AM 57.2 °F - 57.2 °F 100% 29.67 in 10.0 mi SW 12.7 mph 21.9 mph N/A   Mostly Cloudy
5:27 AM 57.2 °F - 55.4 °F 94% 29.68 in 10.0 mi SW 11.5 mph - N/A   Mostly Cloudy
5:32 AM 57.2 °F - 55.4 °F 94% 29.68 in 10.0 mi SW 15.0 mph 20.7 mph N/A   Mostly Cloudy
5:37 AM 57.2 °F - 55.4 °F 94% 29.68 in 10.0 mi SW 17.3 mph 26.5 mph N/A   Mostly Cloudy
5:58 AM 56.7 °F - 54.5 °F 92% 29.71 in 10.0 mi SW 12.7 mph 23.0 mph 0.04 in   Overcast
6:58 AM 53.6 °F - 50.0 °F 88% 29.75 in 10.0 mi SW 11.5 mph - N/A   Mostly Cloudy
7:03 AM 53.6 °F - 50.0 °F 88% 29.75 in 10.0 mi SW 8.1 mph - N/A   Mostly Cloudy
7:33 AM 51.8 °F - 48.2 °F 88% 29.78 in 10.0 mi SSW 10.4 mph - N/A   Scattered Clouds
7:58 AM 50.5 °F - 48.4 °F 92% 29.80 in 10.0 mi SW 10.4 mph - N/A   Partly Cloudy
8:33 AM 50.0 °F - 48.2 °F 94% 29.81 in 10.0 mi SW 9.2 mph - N/A   Mostly Cloudy
8:58 AM 50.0 °F - 47.8 °F 92% 29.83 in 10.0 mi WSW 13.8 mph 19.6 mph N/A   Overcast
9:03 AM 50.0 °F - 48.2 °F 94% 29.84 in 10.0 mi SW 12.7 mph 19.6 mph N/A   Overcast
9:58 AM 49.5 °F - 45.5 °F 86% 29.86 in 10.0 mi SW 11.5 mph 17.3 mph N/A   Overcast
10:43 AM 48.2 °F - 44.6 °F 87% 29.90 in 10.0 mi SW 10.4 mph - N/A   Overcast
10:58 AM 49.1 °F - 45.1 °F 86% 29.93 in 10.0 mi WSW 9.2 mph - N/A   Overcast
11:18 AM 48.2 °F - 44.6 °F 87% 29.91 in 10.0 mi WSW 13.8 mph - N/A   Overcast
11:33 AM 48.2 °F - 44.6 °F 87% 29.93 in 10.0 mi WSW 11.5 mph - N/A   Overcast
11:58 AM 49.1 °F - 44.2 °F 83% 29.92 in 10.0 mi WSW 11.5 mph - N/A   Mostly Cloudy
12:13 PM 48.2 °F - 44.6 °F 87% 29.91 in 10.0 mi West 12.7 mph - N/A   Overcast
12:53 PM 48.2 °F - 44.6 °F 87% 29.89 in 10.0 mi WSW 13.8 mph - N/A   Mostly Cloudy
12:58 PM 48.7 °F - 44.2 °F 84% 29.90 in 10.0 mi WSW 12.7 mph - N/A   Mostly Cloudy
1:58 PM 50.5 °F - 45.1 °F 82% 29.90 in 10.0 mi SW 10.4 mph - N/A   Overcast
2:53 PM 51.8 °F - 44.6 °F 76% 29.90 in 10.0 mi SW 11.5 mph - N/A   Overcast
2:58 PM 51.4 °F - 45.3 °F 80% 29.91 in 10.0 mi SSW 10.4 mph - N/A   Overcast
3:03 PM 51.8 °F - 44.6 °F 76% 29.90 in 10.0 mi SSW 8.1 mph - N/A   Overcast
3:08 PM 51.8 °F - 46.4 °F 82% 29.90 in 10.0 mi SSW 10.4 mph - N/A   Overcast
3:58 PM 52.5 °F - 45.9 °F 78% 29.92 in 10.0 mi SW 5.8 mph - N/A   Overcast
4:23 PM 51.8 °F - 46.4 °F 82% 29.91 in 10.0 mi SSW 6.9 mph - N/A   Overcast
4:28 PM 51.8 °F - 46.4 °F 82% 29.90 in 10.0 mi SSW 5.8 mph - N/A   Overcast
4:38 PM 51.8 °F - 46.4 °F 82% 29.91 in 10.0 mi SSW 6.9 mph - N/A   Overcast
4:58 PM 51.8 °F - 45.9 °F 80% 29.92 in 10.0 mi SSW 5.8 mph - N/A   Overcast
5:33 PM 51.8 °F - 46.4 °F 82% 29.93 in 10.0 mi West 12.7 mph - N/A   Overcast
5:53 PM 50.0 °F - 46.4 °F 87% 29.94 in 10.0 mi West 9.2 mph - N/A   Overcast
5:58 PM 50.2 °F - 46.9 °F 89% 29.95 in 10.0 mi West 13.8 mph - N/A   Overcast
6:03 PM 50.0 °F - 46.4 °F 87% 29.95 in 10.0 mi West 11.5 mph - N/A   Overcast
6:08 PM 48.2 °F - 46.4 °F 93% 29.95 in 10.0 mi West 10.4 mph - N/A   Overcast
6:18 PM 48.2 °F - 46.4 °F 93% 29.96 in 10.0 mi West 12.7 mph - N/A   Overcast
6:48 PM 46.4 °F 41.5 °F 44.6 °F 93% 29.97 in 10.0 mi WSW 10.4 mph - N/A   Overcast
6:58 PM 47.1 °F - 44.6 °F 91% 29.99 in 10.0 mi WSW 9.2 mph - N/A   Overcast
7:13 PM 46.4 °F 41.5 °F 44.6 °F 93% 29.97 in 10.0 mi West 10.4 mph - N/A   Overcast
7:18 PM 46.4 °F 41.9 °F 44.6 °F 93% 29.97 in 10.0 mi West 9.2 mph - N/A   Overcast
7:38 PM 44.6 °F 38.8 °F 44.6 °F 100% 29.98 in 10.0 mi WNW 11.5 mph - N/A   Overcast
7:43 PM 44.6 °F 37.4 °F 42.8 °F 93% 29.97 in 10.0 mi West 16.1 mph - N/A   Overcast
7:58 PM 44.1 °F 38.1 °F 42.6 °F 95% 30.00 in 10.0 mi West 11.5 mph - N/A   Overcast
8:23 PM 42.8 °F 36.2 °F 41.0 °F 93% 29.99 in 10.0 mi WNW 12.7 mph - N/A   Overcast
8:33 PM 42.8 °F 37.0 °F 41.0 °F 93% 30.01 in 9.0 mi West 10.4 mph - N/A   Overcast
8:38 PM 42.8 °F 37.5 °F 41.0 °F 93% 30.02 in 7.0 mi WNW 9.2 mph - N/A   Overcast
8:43 PM 41.0 °F 33.9 °F 41.0 °F 100% 30.02 in 6.0 mi WNW 12.7 mph - N/A   Overcast
8:58 PM 40.8 °F 33.7 °F 39.7 °F 96% 30.03 in 5.0 mi NW 12.7 mph 18.4 mph N/A   Overcast
9:53 PM 39.2 °F 31.6 °F 37.4 °F 93% 30.03 in 6.0 mi NW 12.7 mph - N/A   Overcast
9:58 PM 38.3 °F 30.9 °F 37.4 °F 97% 30.05 in 8.0 mi NW 11.5 mph - N/A   Overcast
10:13 PM 37.4 °F 30.8 °F 37.4 °F 100% 30.03 in 10.0 mi WNW 9.2 mph - N/A   Overcast
10:28 PM 37.4 °F 32.1 °F 35.6 °F 93% 30.04 in 10.0 mi WNW 6.9 mph - N/A   Overcast
10:38 PM 37.4 °F 31.4 °F 35.6 °F 93% 30.06 in 10.0 mi WNW 8.1 mph - N/A   Overcast
10:58 PM 37.0 °F 33.3 °F 35.8 °F 95% 30.09 in 10.0 mi West 4.6 mph - N/A   Overcast
11:03 PM 37.4 °F 32.1 °F 35.6 °F 93% 30.07 in 10.0 mi West 6.9 mph - N/A   Overcast
11:33 PM 35.6 °F 28.6 °F 33.8 °F 93% 30.09 in 10.0 mi West 9.2 mph - N/A   Overcast
11:48 PM 35.6 °F 29.2 °F 32.0 °F 87% 30.10 in 10.0 mi West 8.1 mph - N/A   Overcast
11:58 PM 35.6 °F 29.2 °F 32.0 °F 87% 30.11 in 10.0 mi West 8.1 mph - N/A   Overcast